Regional Weather Roundup
Issued by NWS

Home | Current Version | Previous Version | Text Only | Print | Product List | Glossary Off
Versions: 1 2 3 4 5 6 7 8 9 10 11 12 13 14 15 16 17 18 19 20 21 22 23 24 25 26 27 28 29 30 31 32 33 34 35 36 37 38 39 40 41 42 43 44 45 46 47 48 49 50

000
ASUS43 KBIS 011702
RWRND

NORTH DAKOTA REGIONAL WEATHER ROUNDUP
NATIONAL WEATHER SERVICE BISMARCK ND
1200 PM CDT WED JUL 01 2015

NOTE: "FAIR" INDICATES FEW OR NO CLOUDS BELOW 12,000 FEET WITH NO
SIGNIFICANT WEATHER AND/OR OBSTRUCTIONS TO VISIBILITY.


NDZ001>003-009>011-017-011800-
NORTHWEST NORTH DAKOTA

CITY           SKY/WX    TMP DP  RH WIND       PRES   REMARKS
WILLISTON      CLOUDY    69  59  70 VRB3      30.00R
MINOT          CLOUDY    68  62  81 CALM      29.96R HAZE
MINOT AFB      CLOUDY    68  68 100 N3        29.95R FOG
$$

NDZ018>021-031>035-040>046-011800-
SOUTHWEST NORTH DAKOTA

CITY           SKY/WX    TMP DP  RH WIND       PRES   REMARKS
BISMARCK       PTSUNNY   72  63  73 SE3       29.96R
DICKINSON      CLOUDY    65  59  81 E6        29.99R HAZE
GARRISON         N/A     71  62  73 CALM      29.96R
HETTINGER ARPT CLOUDY    64  61  90 N5        30.00R FOG
$$

NDZ004>008-012>016-024-026-027-054-011800-
NORTHEAST NORTH DAKOTA

CITY           SKY/WX    TMP DP  RH WIND       PRES   REMARKS
GRAND FORKS    MOSUNNY   76  59  55 CALM      29.95R
DEVILS LAKE    SUNNY     72  57  60 S7        29.96S
$$

NDZ022-023-025-028>030-036>039-047>053-011800-
SOUTHEAST NORTH DAKOTA

CITY           SKY/WX    TMP DP  RH WIND       PRES   REMARKS
FARGO          MOSUNNY   74  62  66 S10       29.96S
JAMESTOWN      CLOUDY    72  59  63 S8        29.95S
$$




USA.gov is the U.S. government's official web portal to all federal, state and local government web resources and services.